Time,TemperatureF,DewpointF,PressureIn,WindDirection,WindDirectionDegrees,WindSpeedMPH,WindSpeedGustMPH,Humidity,HourlyPrecipIn,Conditions,Clouds,dailyrainin,SoftwareType,DateUTC
2013-06-15 00:00:00,71.6,65.5,29.98,NE,49,0.0,4.0,81,0.00,,---,0.00,VWS V14.01,2013-06-15 04:00:00,
2013-06-15 00:01:00,71.6,65.5,29.98,NE,49,0.0,0.0,81,0.00,,---,0.00,VWS V14.01,2013-06-15 04:01:00,
2013-06-15 00:04:00,71.5,65.4,29.99,NE,49,0.0,0.0,81,0.00,,---,0.00,VWS V14.01,2013-06-15 04:04:00,
2013-06-15 01:38:00,71.5,65.4,29.99,NE,49,0.0,0.0,81,0.00,,---,0.00,VWS V14.01,2013-06-15 05:38:00,
2013-06-15 01:43:00,71.5,63.2,30.01,NE,49,0.0,1.0,75,0.00,,---,0.00,VWS V14.01,2013-06-15 05:43:00,
2013-06-15 01:48:00,71.1,63.2,30.01,NE,49,0.0,2.0,76,0.00,,---,0.00,VWS V14.01,2013-06-15 05:48:00,
2013-06-15 01:53:00,70.7,63.1,30.01,NE,49,1.0,3.0,77,0.00,,---,0.00,VWS V14.01,2013-06-15 05:53:00,
2013-06-15 01:57:00,70.1,63.3,30.01,NE,49,2.0,4.0,79,0.00,,---,0.00,VWS V14.01,2013-06-15 05:57:00,
2013-06-15 02:00:00,69.9,63.5,30.01,NE,49,1.0,4.0,80,0.00,,---,0.00,VWS V14.01,2013-06-15 06:00:00,
2013-06-15 02:03:00,69.6,63.2,30.01,NE,49,0.0,1.0,80,0.00,,---,0.00,VWS V14.01,2013-06-15 06:03:00,
2013-06-15 02:08:00,69.3,63.6,30.01,NE,49,2.0,2.0,82,0.00,,---,0.00,VWS V14.01,2013-06-15 06:08:00,
2013-06-15 02:13:00,68.6,63.6,30.01,NE,49,2.0,3.0,84,0.00,,---,0.00,VWS V14.01,2013-06-15 06:13:00,
2013-06-15 02:18:00,68.0,63.3,30.02,NE,49,2.0,4.0,85,0.00,,---,0.00,VWS V14.01,2013-06-15 06:18:00,
2013-06-15 02:22:00,67.7,63.4,30.02,NE,49,1.0,4.0,86,0.00,,---,0.00,VWS V14.01,2013-06-15 06:22:00,
2013-06-15 02:27:00,67.4,63.4,30.01,NE,49,3.0,4.0,87,0.00,,---,0.00,VWS V14.01,2013-06-15 06:27:00,
2013-06-15 02:30:00,67.3,63.3,30.01,NE,49,2.0,4.0,87,0.00,,---,0.00,VWS V14.01,2013-06-15 06:30:00,
2013-06-15 02:32:00,67.2,63.5,30.02,NE,49,3.0,3.0,88,0.00,,---,0.00,VWS V14.01,2013-06-15 06:32:00,
2013-06-15 02:37:00,67.1,63.4,30.02,NE,49,2.0,4.0,88,0.00,,---,0.00,VWS V14.01,2013-06-15 06:37:00,
2013-06-15 02:42:00,67.0,63.3,30.02,NE,49,3.0,4.0,88,0.00,,---,0.00,VWS V14.01,2013-06-15 06:42:00,
2013-06-15 02:47:00,66.9,63.6,30.02,NE,49,2.0,4.0,89,0.00,,---,0.00,VWS V14.01,2013-06-15 06:47:00,
2013-06-15 02:52:00,66.7,63.4,30.02,NE,49,2.0,4.0,89,0.00,,---,0.00,VWS V14.01,2013-06-15 06:52:00,
2013-06-15 02:57:00,66.6,63.3,30.02,NE,49,3.0,4.0,89,0.00,,---,0.00,VWS V14.01,2013-06-15 06:57:00,
2013-06-15 03:00:00,66.6,63.6,30.02,NE,49,3.0,4.0,90,0.00,,---,0.00,VWS V14.01,2013-06-15 07:00:00,
2013-06-15 03:02:00,66.6,63.6,30.01,NE,49,2.0,3.0,90,0.00,,---,0.00,VWS V14.01,2013-06-15 07:02:00,
2013-06-15 03:07:00,66.4,63.1,30.01,NE,49,0.0,3.0,89,0.00,,---,0.00,VWS V14.01,2013-06-15 07:07:00,
2013-06-15 03:24:00,65.8,62.8,30.02,NE,49,0.0,3.0,90,0.00,,---,0.00,VWS V14.01,2013-06-15 07:24:00,
2013-06-15 03:29:00,65.7,63.0,30.02,NE,49,0.0,3.0,91,0.00,,---,0.00,VWS V14.01,2013-06-15 07:29:00,
2013-06-15 03:30:00,65.7,63.0,30.02,NE,49,1.0,3.0,91,0.00,,---,0.00,VWS V14.01,2013-06-15 07:30:00,
2013-06-15 03:34:00,65.5,62.8,30.02,NE,49,0.0,2.0,91,0.00,,---,0.00,VWS V14.01,2013-06-15 07:34:00,
2013-06-15 03:39:00,65.5,62.8,30.02,NE,49,0.0,2.0,91,0.00,,---,0.00,VWS V14.01,2013-06-15 07:39:00,
2013-06-15 03:44:00,65.3,62.6,30.02,NE,49,0.0,2.0,91,0.00,,---,0.00,VWS V14.01,2013-06-15 07:44:00,
2013-06-15 03:49:00,65.3,62.6,30.01,NE,49,1.0,3.0,91,0.00,,---,0.00,VWS V14.01,2013-06-15 07:49:00,
2013-06-15 03:54:00,65.2,62.5,30.01,NE,49,2.0,3.0,91,0.00,,---,0.00,VWS V14.01,2013-06-15 07:54:00,
2013-06-15 03:59:00,65.0,62.3,30.01,NE,49,1.0,3.0,91,0.00,,---,0.00,VWS V14.01,2013-06-15 07:59:00,
2013-06-15 04:00:00,65.0,62.3,30.01,NE,49,2.0,3.0,91,0.00,,---,0.00,VWS V14.01,2013-06-15 08:00:00,
2013-06-15 04:04:00,64.9,62.2,30.01,NE,49,0.0,3.0,91,0.00,,---,0.00,VWS V14.01,2013-06-15 08:04:00,
2013-06-15 04:09:00,64.7,62.0,30.01,NE,49,0.0,3.0,91,0.00,,---,0.00,VWS V14.01,2013-06-15 08:09:00,
2013-06-15 04:14:00,64.5,61.8,30.01,NE,49,0.0,3.0,91,0.00,,---,0.00,VWS V14.01,2013-06-15 08:14:00,
2013-06-15 04:19:00,64.4,61.7,30.01,NE,49,0.0,3.0,91,0.00,,---,0.00,VWS V14.01,2013-06-15 08:19:00,
2013-06-15 04:24:00,64.2,61.5,30.01,NE,49,2.0,3.0,91,0.00,,---,0.00,VWS V14.01,2013-06-15 08:24:00,
2013-06-15 04:29:00,64.1,61.4,30.01,NE,49,0.0,3.0,91,0.00,,---,0.00,VWS V14.01,2013-06-15 08:29:00,
2013-06-15 04:30:00,64.1,61.4,30.01,NE,49,0.0,3.0,91,0.00,,---,0.00,VWS V14.01,2013-06-15 08:30:00,
2013-06-15 04:34:00,64.0,61.3,30.01,NE,49,0.0,1.0,91,0.00,,---,0.00,VWS V14.01,2013-06-15 08:34:00,
2013-06-15 04:39:00,63.9,61.2,30.01,NE,49,0.0,1.0,91,0.00,,---,0.00,VWS V14.01,2013-06-15 08:39:00,
2013-06-15 04:44:00,63.8,61.1,30.01,NE,49,0.0,1.0,91,0.00,,---,0.00,VWS V14.01,2013-06-15 08:44:00,
2013-06-15 04:49:00,63.7,61.3,30.02,NE,49,0.0,2.0,92,0.00,,---,0.00,VWS V14.01,2013-06-15 08:49:00,
2013-06-15 04:54:00,63.6,61.2,30.02,NE,49,0.0,2.0,92,0.00,,---,0.00,VWS V14.01,2013-06-15 08:54:00,
2013-06-15 04:59:00,63.6,60.9,30.02,NE,49,0.0,2.0,91,0.00,,---,0.00,VWS V14.01,2013-06-15 08:59:00,
2013-06-15 05:00:00,63.6,60.9,30.02,NE,49,1.0,2.0,91,0.00,,---,0.00,VWS V14.01,2013-06-15 09:00:00,
2013-06-15 05:04:00,63.6,60.9,30.02,NE,49,0.0,1.0,91,0.00,,---,0.00,VWS V14.01,2013-06-15 09:04:00,
2013-06-15 05:09:00,63.5,60.8,30.02,NE,49,0.0,1.0,91,0.00,,---,0.00,VWS V14.01,2013-06-15 09:09:00,
2013-06-15 05:14:00,63.5,60.8,30.03,NE,49,0.0,1.0,91,0.00,,---,0.00,VWS V14.01,2013-06-15 09:14:00,
2013-06-15 05:19:00,63.6,60.6,30.03,NE,49,0.0,1.0,90,0.00,,---,0.00,VWS V14.01,2013-06-15 09:19:00,
2013-06-15 05:24:00,63.6,60.6,30.03,NE,49,1.0,1.0,90,0.00,,---,0.00,VWS V14.01,2013-06-15 09:24:00,
2013-06-15 05:29:00,63.7,60.7,30.03,NE,49,0.0,2.0,90,0.00,,---,0.00,VWS V14.01,2013-06-15 09:29:00,
2013-06-15 05:30:00,63.7,60.7,30.03,NE,49,1.0,2.0,90,0.00,,---,0.00,VWS V14.01,2013-06-15 09:30:00,
2013-06-15 05:34:00,63.6,60.6,30.03,NE,49,0.0,1.0,90,0.00,,---,0.00,VWS V14.01,2013-06-15 09:34:00,
2013-06-15 05:39:00,63.6,60.9,30.04,NE,49,0.0,1.0,91,0.00,,---,0.00,VWS V14.01,2013-06-15 09:39:00,
2013-06-15 05:44:00,63.5,60.8,30.04,NE,49,0.0,1.0,91,0.00,,---,0.00,VWS V14.01,2013-06-15 09:44:00,
2013-06-15 05:49:00,63.4,60.7,30.05,NE,49,0.0,1.0,91,0.00,,---,0.00,VWS V14.01,2013-06-15 09:49:00,
2013-06-15 05:54:00,63.3,60.6,30.05,NE,49,0.0,1.0,91,0.00,,---,0.00,VWS V14.01,2013-06-15 09:54:00,
2013-06-15 05:59:00,63.3,60.9,30.05,NE,49,0.0,1.0,92,0.00,,---,0.00,VWS V14.01,2013-06-15 09:59:00,
2013-06-15 06:00:00,63.3,60.9,30.05,NE,49,1.0,1.0,92,0.00,,---,0.00,VWS V14.01,2013-06-15 10:00:00,
2013-06-15 06:04:00,63.2,60.8,30.05,NE,49,0.0,1.0,92,0.00,,---,0.00,VWS V14.01,2013-06-15 10:04:00,
2013-06-15 06:09:00,63.2,60.8,30.05,NE,49,0.0,1.0,92,0.00,,---,0.00,VWS V14.01,2013-06-15 10:09:00,
2013-06-15 06:14:00,63.1,61.0,30.06,NE,49,0.0,1.0,93,0.00,,---,0.00,VWS V14.01,2013-06-15 10:14:00,
2013-06-15 06:19:00,63.1,61.0,30.06,NE,49,0.0,1.0,93,0.00,,---,0.00,VWS V14.01,2013-06-15 10:19:00,
2013-06-15 06:24:00,63.1,61.0,30.06,NE,49,0.0,1.0,93,0.00,,---,0.00,VWS V14.01,2013-06-15 10:24:00,
2013-06-15 06:29:00,63.1,61.0,30.06,NE,49,0.0,1.0,93,0.00,,---,0.00,VWS V14.01,2013-06-15 10:29:00,
2013-06-15 06:30:00,63.1,61.0,30.06,NE,49,0.0,1.0,93,0.00,,---,0.00,VWS V14.01,2013-06-15 10:30:00,
2013-06-15 06:34:00,63.1,61.0,30.07,NE,49,0.0,0.0,93,0.00,,---,0.00,VWS V14.01,2013-06-15 10:34:00,
2013-06-15 06:39:00,63.1,61.0,30.07,NE,49,0.0,0.0,93,0.00,,---,0.00,VWS V14.01,2013-06-15 10:39:00,
2013-06-15 06:44:00,63.1,61.0,30.07,NE,49,0.0,0.0,93,0.00,,---,0.00,VWS V14.01,2013-06-15 10:44:00,
2013-06-15 06:49:00,63.2,61.2,30.07,NE,49,0.0,0.0,93,0.00,,---,0.00,VWS V14.01,2013-06-15 10:49:00,
2013-06-15 06:54:00,63.2,61.2,30.07,NE,49,0.0,0.0,93,0.00,,---,0.00,VWS V14.01,2013-06-15 10:54:00,
2013-06-15 06:59:00,63.4,61.3,30.07,NE,49,0.0,0.0,93,0.00,,---,0.00,VWS V14.01,2013-06-15 10:59:00,
2013-06-15 07:49:00,63.4,61.3,30.07,NE,49,0.0,0.0,93,0.00,,---,0.00,VWS V14.01,2013-06-15 11:49:00,
2013-06-15 07:54:00,67.7,62.7,30.09,NE,49,1.0,3.0,84,0.00,,---,0.00,VWS V14.01,2013-06-15 11:54:00,
2013-06-15 07:59:00,67.7,62.7,30.09,NE,49,0.0,3.0,84,0.00,,---,0.00,VWS V14.01,2013-06-15 11:59:00,
2013-06-15 08:00:00,67.7,62.7,30.09,NE,49,0.0,3.0,84,0.00,,---,0.00,VWS V14.01,2013-06-15 12:00:00,
2013-06-15 08:04:00,67.9,63.2,30.09,NE,49,0.0,2.0,85,0.00,,---,0.00,VWS V14.01,2013-06-15 12:04:00,
2013-06-15 08:09:00,68.4,63.4,30.09,NE,49,0.0,2.0,84,0.00,,---,0.00,VWS V14.01,2013-06-15 12:09:00,
2013-06-15 08:14:00,69.1,64.1,30.09,NE,49,0.0,2.0,84,0.00,,---,0.00,VWS V14.01,2013-06-15 12:14:00,
2013-06-15 08:19:00,69.9,63.8,30.08,NE,49,3.0,3.0,81,0.00,,---,0.00,VWS V14.01,2013-06-15 12:19:00,
2013-06-15 08:24:00,70.2,64.1,30.09,NE,49,5.0,6.0,81,0.00,,---,0.00,VWS V14.01,2013-06-15 12:24:00,
2013-06-15 08:29:00,70.8,64.3,30.09,NE,49,0.0,6.0,80,0.00,,---,0.00,VWS V14.01,2013-06-15 12:29:00,
2013-06-15 08:30:00,71.0,64.5,30.09,NE,49,2.0,6.0,80,0.00,,---,0.00,VWS V14.01,2013-06-15 12:30:00,
2013-06-15 08:34:00,71.6,64.4,30.09,NE,49,5.0,6.0,78,0.00,,---,0.00,VWS V14.01,2013-06-15 12:34:00,
2013-06-15 08:39:00,71.8,63.5,30.09,NE,44,5.0,8.0,75,0.00,,---,0.00,VWS V14.01,2013-06-15 12:39:00,
2013-06-15 08:44:00,71.8,63.8,30.10,NE,45,5.0,8.0,76,0.00,,---,0.00,VWS V14.01,2013-06-15 12:44:00,
2013-06-15 08:49:00,72.1,63.4,30.10,NE,34,5.0,10.0,74,0.00,,---,0.00,VWS V14.01,2013-06-15 12:49:00,
2013-06-15 08:54:00,72.2,63.5,30.10,NNE,32,6.0,10.0,74,0.00,,---,0.00,VWS V14.01,2013-06-15 12:54:00,
2013-06-15 08:59:00,72.6,63.8,30.10,NNE,32,1.0,10.0,74,0.00,,---,0.00,VWS V14.01,2013-06-15 12:59:00,
2013-06-15 09:00:00,72.7,63.5,30.10,NNE,32,3.0,10.0,73,0.00,,---,0.00,VWS V14.01,2013-06-15 13:00:00,
2013-06-15 09:04:00,73.2,63.6,30.10,NNE,32,7.0,7.0,72,0.00,,---,0.00,VWS V14.01,2013-06-15 13:04:00,
2013-06-15 09:09:00,73.6,64.0,30.10,NNE,31,7.0,7.0,72,0.00,,---,0.00,VWS V14.01,2013-06-15 13:09:00,
2013-06-15 09:14:00,73.8,63.8,30.10,NNE,30,6.0,9.0,71,0.00,,---,0.00,VWS V14.01,2013-06-15 13:14:00,
2013-06-15 09:19:00,73.8,64.2,30.10,NNE,33,2.0,9.0,72,0.00,,---,0.00,VWS V14.01,2013-06-15 13:19:00,
2013-06-15 09:24:00,74.4,64.4,30.10,NNE,32,4.0,9.0,71,0.00,,---,0.00,VWS V14.01,2013-06-15 13:24:00,
2013-06-15 09:29:00,74.6,64.2,30.11,NNE,30,5.0,9.0,70,0.00,,---,0.00,VWS V14.01,2013-06-15 13:29:00,
2013-06-15 09:30:00,74.7,64.3,30.11,NNE,30,7.0,9.0,70,0.00,,---,0.00,VWS V14.01,2013-06-15 13:30:00,
2013-06-15 09:34:00,74.6,64.2,30.11,NNE,30,3.0,10.0,70,0.00,,---,0.00,VWS V14.01,2013-06-15 13:34:00,
2013-06-15 09:39:00,74.6,63.3,30.11,NNE,32,2.0,10.0,68,0.00,,---,0.00,VWS V14.01,2013-06-15 13:39:00,
2013-06-15 09:44:00,75.2,63.9,30.11,NNE,32,3.0,10.0,68,0.00,,---,0.00,VWS V14.01,2013-06-15 13:44:00,
2013-06-15 09:49:00,75.7,63.5,30.11,NNE,32,3.0,10.0,66,0.00,,---,0.00,VWS V14.01,2013-06-15 13:49:00,
2013-06-15 09:54:00,75.7,64.0,30.11,NNE,32,5.0,10.0,67,0.00,,---,0.00,VWS V14.01,2013-06-15 13:54:00,
2013-06-15 09:59:00,75.9,65.0,30.11,NNE,32,5.0,10.0,69,0.00,,---,0.00,VWS V14.01,2013-06-15 13:59:00,
2013-06-15 10:00:00,76.0,63.8,30.11,NNE,32,3.0,10.0,66,0.00,,---,0.00,VWS V14.01,2013-06-15 14:00:00,
2013-06-15 10:04:00,76.1,65.2,30.11,NNE,33,2.0,5.0,69,0.00,,---,0.00,VWS V14.01,2013-06-15 14:04:00,
2013-06-15 10:09:00,76.0,63.8,30.11,NE,42,0.0,7.0,66,0.00,,---,0.00,VWS V14.01,2013-06-15 14:09:00,
2013-06-15 10:14:00,76.4,64.2,30.11,NE,42,3.0,7.0,66,0.00,,---,0.00,VWS V14.01,2013-06-15 14:14:00,
2013-06-15 10:19:00,76.6,63.5,30.11,NE,43,5.0,7.0,64,0.00,,---,0.00,VWS V14.01,2013-06-15 14:19:00,
2013-06-15 10:24:00,76.7,64.5,30.11,NE,43,3.0,7.0,66,0.00,,---,0.00,VWS V14.01,2013-06-15 14:24:00,
2013-06-15 10:29:00,76.8,63.7,30.10,NE,55,3.0,7.0,64,0.00,,---,0.00,VWS V14.01,2013-06-15 14:29:00,
2013-06-15 10:30:00,76.8,63.7,30.11,NE,55,2.0,7.0,64,0.00,,---,0.00,VWS V14.01,2013-06-15 14:30:00,
2013-06-15 10:34:00,76.8,64.6,30.11,ENE,58,4.0,6.0,66,0.00,,---,0.00,VWS V14.01,2013-06-15 14:34:00,
2013-06-15 10:39:00,77.0,64.8,30.10,NE,55,4.0,7.0,66,0.00,,---,0.00,VWS V14.01,2013-06-15 14:39:00,
2013-06-15 10:44:00,77.6,65.3,30.10,NE,55,4.0,7.0,66,0.00,,---,0.00,VWS V14.01,2013-06-15 14:44:00,
2013-06-15 10:49:00,77.7,65.0,30.10,NE,52,4.0,7.0,65,0.00,,---,0.00,VWS V14.01,2013-06-15 14:49:00,
2013-06-15 10:54:00,77.2,64.1,30.10,NE,49,0.0,7.0,64,0.00,,---,0.00,VWS V14.01,2013-06-15 14:54:00,
2013-06-15 10:59:00,77.8,63.8,30.10,NE,49,5.0,7.0,62,0.00,,---,0.00,VWS V14.01,2013-06-15 14:59:00,
2013-06-15 11:00:00,77.9,64.8,30.10,NE,49,2.0,7.0,64,0.00,,---,0.00,VWS V14.01,2013-06-15 15:00:00,
2013-06-15 11:04:00,78.2,65.5,30.10,NE,49,1.0,4.0,65,0.00,,---,0.00,VWS V14.01,2013-06-15 15:04:00,
2013-06-15 11:09:00,78.6,66.3,30.10,NE,49,5.0,7.0,66,0.00,,---,0.00,VWS V14.01,2013-06-15 15:09:00,
2013-06-15 11:12:00,78.6,65.4,30.10,NE,49,4.0,7.0,64,0.00,,---,0.00,VWS V14.01,2013-06-15 15:12:00,
2013-06-15 11:57:00,78.6,65.4,30.10,NE,48,3.0,7.0,64,0.00,,---,0.00,VWS V14.01,2013-06-15 15:57:00,
2013-06-15 12:00:00,79.3,64.2,30.10,NE,53,2.0,7.0,60,0.00,,---,0.00,VWS V14.01,2013-06-15 16:00:00,
2013-06-15 12:02:00,79.3,64.2,30.10,ESE,106,4.0,7.0,60,0.00,,---,0.00,VWS V14.01,2013-06-15 16:02:00,
2013-06-15 12:07:00,79.4,64.3,30.10,SSE,160,1.0,7.0,60,0.00,,---,0.00,VWS V14.01,2013-06-15 16:07:00,
2013-06-15 12:12:00,79.5,63.4,30.10,SSE,159,1.0,7.0,58,0.00,,---,0.00,VWS V14.01,2013-06-15 16:12:00,
2013-06-15 12:17:00,79.7,66.0,30.10,SSE,149,3.0,7.0,63,0.00,,---,0.00,VWS V14.01,2013-06-15 16:17:00,
2013-06-15 12:22:00,79.9,64.8,30.10,SSE,164,8.0,8.0,60,0.00,,---,0.00,VWS V14.01,2013-06-15 16:22:00,
2013-06-15 12:27:00,80.0,65.4,30.10,SSW,194,4.0,8.0,61,0.00,,---,0.00,VWS V14.01,2013-06-15 16:27:00,
2013-06-15 12:59:00,80.1,65.4,30.10,South,189,4.0,8.0,61,0.00,,---,0.00,VWS V14.01,2013-06-15 16:59:00,
2013-06-15 13:00:00,80.1,65.0,30.10,ESE,113,2.0,8.0,60,0.00,,---,0.00,VWS V14.01,2013-06-15 17:00:00,
2013-06-15 13:04:00,80.3,64.7,30.10,ENE,75,4.0,7.0,59,0.00,,---,0.00,VWS V14.01,2013-06-15 17:04:00,
2013-06-15 13:09:00,80.6,64.5,30.10,NE,52,1.0,11.0,58,0.00,,---,0.00,VWS V14.01,2013-06-15 17:09:00,
2013-06-15 13:14:00,80.6,64.0,30.10,NE,52,2.0,11.0,57,0.00,,---,0.00,VWS V14.01,2013-06-15 17:14:00,
2013-06-15 13:19:00,80.9,64.8,30.10,ENE,59,1.0,11.0,58,0.00,,---,0.00,VWS V14.01,2013-06-15 17:19:00,
2013-06-15 13:24:00,81.5,64.8,30.10,NE,48,6.0,11.0,57,0.00,,---,0.00,VWS V14.01,2013-06-15 17:24:00,
2013-06-15 13:29:00,82.0,64.3,30.10,NE,56,5.0,11.0,55,0.00,,---,0.00,VWS V14.01,2013-06-15 17:29:00,
2013-06-15 13:30:00,82.0,64.3,30.10,NE,56,3.0,11.0,55,0.00,,---,0.00,VWS V14.01,2013-06-15 17:30:00,
2013-06-15 13:34:00,82.1,63.8,30.10,NE,53,4.0,5.0,54,0.00,,---,0.00,VWS V14.01,2013-06-15 17:34:00,
2013-06-15 13:39:00,82.2,62.8,30.10,SE,128,2.0,6.0,52,0.00,,---,0.00,VWS V14.01,2013-06-15 17:39:00,
2013-06-15 13:42:00,82.3,65.6,30.10,SE,129,3.0,6.0,57,0.00,,---,0.00,VWS V14.01,2013-06-15 17:42:00,
2013-06-15 14:01:00,82.3,65.6,30.10,SE,129,3.0,6.0,57,0.00,,---,0.00,VWS V14.01,2013-06-15 18:01:00,
2013-06-15 14:06:00,82.8,65.0,30.09,SE,141,4.0,6.0,55,0.00,,---,0.00,VWS V14.01,2013-06-15 18:06:00,
2013-06-15 14:11:00,82.3,65.6,30.09,East,91,2.0,6.0,57,0.00,,---,0.00,VWS V14.01,2013-06-15 18:11:00,
2013-06-15 14:16:00,81.8,65.6,30.08,ENE,66,4.0,7.0,58,0.00,,---,0.00,VWS V14.01,2013-06-15 18:16:00,
2013-06-15 14:21:00,81.6,65.4,30.08,ENE,59,6.0,11.0,58,0.00,,---,0.00,VWS V14.01,2013-06-15 18:21:00,
2013-06-15 14:26:00,81.7,64.0,30.08,ENE,59,4.0,11.0,55,0.00,,---,0.00,VWS V14.01,2013-06-15 18:26:00,
2013-06-15 14:30:00,81.7,64.0,30.08,ENE,63,6.0,11.0,55,0.00,,---,0.00,VWS V14.01,2013-06-15 18:30:00,
2013-06-15 14:31:00,81.8,64.1,30.08,SSW,194,4.0,8.0,55,0.00,,---,0.00,VWS V14.01,2013-06-15 18:31:00,
2013-06-15 15:03:00,81.8,63.5,30.08,SSW,194,2.0,8.0,54,0.00,,---,0.00,VWS V14.01,2013-06-15 19:03:00,
2013-06-15 15:08:00,82.4,64.6,30.08,ENE,69,2.0,8.0,55,0.00,,---,0.00,VWS V14.01,2013-06-15 19:08:00,
2013-06-15 15:13:00,83.0,63.6,30.07,ENE,74,4.0,8.0,52,0.00,,---,0.00,VWS V14.01,2013-06-15 19:13:00,
2013-06-15 15:18:00,82.8,65.5,30.07,East,83,2.0,8.0,56,0.00,,---,0.00,VWS V14.01,2013-06-15 19:18:00,
2013-06-15 15:23:00,83.4,64.0,30.07,East,82,1.0,8.0,52,0.00,,---,0.00,VWS V14.01,2013-06-15 19:23:00,
2013-06-15 15:28:00,83.9,63.8,30.07,WSW,253,3.0,8.0,51,0.00,,---,0.00,VWS V14.01,2013-06-15 19:28:00,
2013-06-15 15:30:00,83.7,63.7,30.07,WSW,253,1.0,8.0,51,0.00,,---,0.00,VWS V14.01,2013-06-15 19:30:00,
2013-06-15 15:33:00,83.2,64.3,30.07,North,360,2.0,6.0,53,0.00,,---,0.00,VWS V14.01,2013-06-15 19:33:00,
2013-06-15 15:34:00,83.2,65.9,30.07,North,9,4.0,6.0,56,0.00,,---,0.00,VWS V14.01,2013-06-15 19:34:00,
2013-06-15 16:06:00,83.2,65.9,30.07,North,9,4.0,6.0,56,0.00,,---,0.00,VWS V14.01,2013-06-15 20:06:00,
2013-06-15 16:11:00,82.8,63.4,30.07,NE,41,0.0,7.0,52,0.00,,---,0.00,VWS V14.01,2013-06-15 20:11:00,
2013-06-15 16:16:00,82.9,63.5,30.07,NE,45,2.0,7.0,52,0.00,,---,0.00,VWS V14.01,2013-06-15 20:16:00,
2013-06-15 16:21:00,82.7,63.3,30.07,NE,48,5.0,7.0,52,0.00,,---,0.00,VWS V14.01,2013-06-15 20:21:00,
2013-06-15 16:26:00,82.9,64.0,30.07,NE,45,4.0,7.0,53,0.00,,---,0.00,VWS V14.01,2013-06-15 20:26:00,
2013-06-15 16:30:00,82.8,62.8,30.07,NE,45,1.0,7.0,51,0.00,,---,0.00,VWS V14.01,2013-06-15 20:30:00,
2013-06-15 16:31:00,82.8,63.4,30.07,NE,45,0.0,1.0,52,0.00,,---,0.00,VWS V14.01,2013-06-15 20:31:00,
2013-06-15 16:36:00,82.7,64.9,30.06,NE,45,3.0,7.0,55,0.00,,---,0.00,VWS V14.01,2013-06-15 20:36:00,
2013-06-15 16:40:00,82.7,64.9,30.06,NE,48,2.0,7.0,55,0.00,,---,0.00,VWS V14.01,2013-06-15 20:40:00,
2013-06-15 16:45:00,82.8,63.4,30.06,NE,52,3.0,10.0,52,0.00,,---,0.00,VWS V14.01,2013-06-15 20:45:00,
2013-06-15 16:50:00,83.2,63.8,30.06,NE,52,2.0,10.0,52,0.00,,---,0.00,VWS V14.01,2013-06-15 20:50:00,
2013-06-15 16:55:00,83.7,65.8,30.06,NE,52,4.0,10.0,55,0.00,,---,0.00,VWS V14.01,2013-06-15 20:55:00,
2013-06-15 17:00:00,83.5,62.9,30.06,NE,40,6.0,7.0,50,0.00,,---,0.00,VWS V14.01,2013-06-15 21:00:00,
2013-06-15 17:05:00,83.1,63.7,30.06,NE,38,2.0,7.0,52,0.00,,---,0.00,VWS V14.01,2013-06-15 21:05:00,
2013-06-15 17:10:00,83.0,64.7,30.06,NE,39,1.0,7.0,54,0.00,,---,0.00,VWS V14.01,2013-06-15 21:10:00,
2013-06-15 17:15:00,83.0,63.0,30.06,NE,38,1.0,7.0,51,0.00,,---,0.00,VWS V14.01,2013-06-15 21:15:00,
2013-06-15 17:20:00,83.2,64.3,30.06,NE,39,3.0,7.0,53,0.00,,---,0.00,VWS V14.01,2013-06-15 21:20:00,
2013-06-15 17:25:00,83.5,64.0,30.06,NE,40,4.0,7.0,52,0.00,,---,0.00,VWS V14.01,2013-06-15 21:25:00,
2013-06-15 17:30:00,83.5,64.0,30.06,NE,40,0.0,2.0,52,0.00,,---,0.00,VWS V14.01,2013-06-15 21:30:00,
2013-06-15 17:35:00,83.9,65.5,30.06,NE,40,2.0,5.0,54,0.00,,---,0.00,VWS V14.01,2013-06-15 21:35:00,
2013-06-15 17:40:00,83.6,64.7,30.05,NE,40,2.0,6.0,53,0.00,,---,0.00,VWS V14.01,2013-06-15 21:40:00,
2013-06-15 17:45:00,83.5,63.5,30.05,NE,41,5.0,6.0,51,0.00,,---,0.00,VWS V14.01,2013-06-15 21:45:00,
2013-06-15 17:50:00,83.1,62.5,30.05,ENE,57,4.0,7.0,50,0.00,,---,0.00,VWS V14.01,2013-06-15 21:50:00,
2013-06-15 17:55:00,83.1,62.5,30.05,ENE,57,2.0,7.0,50,0.00,,---,0.00,VWS V14.01,2013-06-15 21:55:00,
2013-06-15 18:00:00,83.1,63.1,30.05,ENE,57,3.0,4.0,51,0.00,,---,0.00,VWS V14.01,2013-06-15 22:00:00,
2013-06-15 18:05:00,83.0,63.6,30.05,ENE,57,0.0,6.0,52,0.00,,---,0.00,VWS V14.01,2013-06-15 22:05:00,
2013-06-15 18:10:00,83.2,64.3,30.05,ENE,60,3.0,6.0,53,0.00,,---,0.00,VWS V14.01,2013-06-15 22:10:00,
2013-06-15 18:15:00,83.4,63.4,30.04,ENE,60,1.0,6.0,51,0.00,,---,0.00,VWS V14.01,2013-06-15 22:15:00,
2013-06-15 18:20:00,83.7,64.8,30.05,ENE,60,1.0,6.0,53,0.00,,---,0.00,VWS V14.01,2013-06-15 22:20:00,
2013-06-15 18:25:00,83.7,64.8,30.04,ENE,60,2.0,6.0,53,0.00,,---,0.00,VWS V14.01,2013-06-15 22:25:00,
2013-06-15 18:30:00,83.3,64.4,30.04,ENE,60,2.0,3.0,53,0.00,,---,0.00,VWS V14.01,2013-06-15 22:30:00,
2013-06-15 18:35:00,83.2,64.3,30.04,ENE,61,2.0,5.0,53,0.00,,---,0.00,VWS V14.01,2013-06-15 22:35:00,
2013-06-15 18:40:00,83.0,64.7,30.04,ENE,61,2.0,5.0,54,0.00,,---,0.00,VWS V14.01,2013-06-15 22:40:00,
2013-06-15 18:45:00,82.9,64.0,30.04,ENE,61,1.0,5.0,53,0.00,,---,0.00,VWS V14.01,2013-06-15 22:45:00,
2013-06-15 18:50:00,82.9,63.5,30.04,ENE,61,3.0,5.0,52,0.00,,---,0.00,VWS V14.01,2013-06-15 22:50:00,
2013-06-15 18:55:00,82.8,64.5,30.04,ENE,60,0.0,5.0,54,0.00,,---,0.00,VWS V14.01,2013-06-15 22:55:00,
2013-06-15 19:00:00,82.6,63.2,30.04,ENE,61,2.0,2.0,52,0.00,,---,0.00,VWS V14.01,2013-06-15 23:00:00,
2013-06-15 19:05:00,82.5,63.7,30.04,ENE,61,3.0,4.0,53,0.00,,---,0.00,VWS V14.01,2013-06-15 23:05:00,
2013-06-15 19:10:00,82.4,62.5,30.04,ENE,61,1.0,4.0,51,0.00,,---,0.00,VWS V14.01,2013-06-15 23:10:00,
2013-06-15 19:15:00,82.2,62.3,30.04,ENE,60,3.0,4.0,51,0.00,,---,0.00,VWS V14.01,2013-06-15 23:15:00,
2013-06-15 19:20:00,82.2,62.8,30.04,ENE,60,2.0,4.0,52,0.00,,---,0.00,VWS V14.01,2013-06-15 23:20:00,
2013-06-15 19:25:00,82.1,62.8,30.04,ENE,61,0.0,4.0,52,0.00,,---,0.00,VWS V14.01,2013-06-15 23:25:00,
2013-06-15 19:30:00,82.1,62.8,30.04,ENE,61,0.0,2.0,52,0.00,,---,0.00,VWS V14.01,2013-06-15 23:30:00,
2013-06-15 19:35:00,82.0,63.2,30.04,ENE,61,1.0,3.0,53,0.00,,---,0.00,VWS V14.01,2013-06-15 23:35:00,
2013-06-15 19:40:00,81.7,64.0,30.04,ENE,61,0.0,3.0,55,0.00,,---,0.00,VWS V14.01,2013-06-15 23:40:00,
2013-06-15 19:44:00,81.8,64.1,30.04,ENE,60,3.0,3.0,55,0.00,,---,0.00,VWS V14.01,2013-06-15 23:44:00,
2013-06-15 20:14:00,81.8,64.1,30.04,ENE,60,3.0,3.0,55,0.00,,---,0.00,VWS V14.01,2013-06-16 00:14:00,
2013-06-15 20:19:00,80.1,67.7,30.04,ENE,60,0.0,3.0,66,0.00,,---,0.00,VWS V14.01,2013-06-16 00:19:00,
2013-06-15 20:24:00,79.6,66.4,30.04,ENE,61,0.0,3.0,64,0.00,,---,0.00,VWS V14.01,2013-06-16 00:24:00,
2013-06-15 20:29:00,79.2,66.9,30.04,ENE,60,0.0,3.0,66,0.00,,---,0.00,VWS V14.01,2013-06-16 00:29:00,
2013-06-15 20:30:00,79.1,66.8,30.04,ENE,61,0.0,3.0,66,0.00,,---,0.00,VWS V14.01,2013-06-16 00:30:00,
2013-06-15 20:34:00,78.8,66.5,30.04,ENE,61,0.0,1.0,66,0.00,,---,0.00,VWS V14.01,2013-06-16 00:34:00,
2013-06-15 20:39:00,78.5,66.6,30.04,ENE,60,0.0,1.0,67,0.00,,---,0.00,VWS V14.01,2013-06-16 00:39:00,
2013-06-15 20:44:00,78.1,67.5,30.04,ENE,60,0.0,1.0,70,0.00,,---,0.00,VWS V14.01,2013-06-16 00:44:00,
2013-06-15 20:49:00,77.7,66.7,30.04,ENE,61,0.0,1.0,69,0.00,,---,0.00,VWS V14.01,2013-06-16 00:49:00,
2013-06-15 20:54:00,77.2,67.1,30.04,ENE,61,0.0,1.0,71,0.00,,---,0.00,VWS V14.01,2013-06-16 00:54:00,
2013-06-15 20:59:00,76.7,66.6,30.03,ENE,61,0.0,1.0,71,0.00,,---,0.00,VWS V14.01,2013-06-16 00:59:00,
2013-06-15 21:00:00,76.6,66.5,30.03,ENE,61,0.0,1.0,71,0.00,,---,0.00,VWS V14.01,2013-06-16 01:00:00,
2013-06-15 21:04:00,76.3,65.8,30.04,ENE,60,0.0,0.0,70,0.00,,---,0.00,VWS V14.01,2013-06-16 01:04:00,
2013-06-15 21:09:00,76.0,67.9,30.04,ENE,60,0.0,3.0,76,0.00,,---,0.00,VWS V14.01,2013-06-16 01:09:00,
2013-06-15 21:14:00,75.4,66.9,30.04,ENE,61,0.0,3.0,75,0.00,,---,0.00,VWS V14.01,2013-06-16 01:14:00,
2013-06-15 21:19:00,75.0,67.3,30.04,ENE,61,0.0,3.0,77,0.00,,---,0.00,VWS V14.01,2013-06-16 01:19:00,
2013-06-15 21:24:00,74.3,66.6,30.04,ENE,60,0.0,3.0,77,0.00,,---,0.00,VWS V14.01,2013-06-16 01:24:00,
2013-06-15 21:29:00,73.8,66.9,30.04,ENE,61,0.0,3.0,79,0.00,,---,0.00,VWS V14.01,2013-06-16 01:29:00,
2013-06-15 21:30:00,73.7,66.8,30.04,ENE,61,0.0,3.0,79,0.00,,---,0.00,VWS V14.01,2013-06-16 01:30:00,
2013-06-15 21:34:00,73.4,66.9,30.04,ENE,61,0.0,0.0,80,0.00,,---,0.00,VWS V14.01,2013-06-16 01:34:00,
2013-06-15 21:39:00,73.0,66.8,30.04,ENE,60,0.0,0.0,81,0.00,,---,0.00,VWS V14.01,2013-06-16 01:39:00,
2013-06-15 21:44:00,72.3,66.2,30.05,ENE,61,0.0,1.0,81,0.00,,---,0.00,VWS V14.01,2013-06-16 01:44:00,
2013-06-15 21:49:00,72.0,66.2,30.05,ENE,61,0.0,1.0,82,0.00,,---,0.00,VWS V14.01,2013-06-16 01:49:00,
2013-06-15 21:54:00,71.6,66.2,30.05,ENE,61,0.0,1.0,83,0.00,,---,0.00,VWS V14.01,2013-06-16 01:54:00,
2013-06-15 21:59:00,71.2,65.8,30.06,ENE,61,0.0,1.0,83,0.00,,---,0.00,VWS V14.01,2013-06-16 01:59:00,
2013-06-15 22:00:00,71.2,65.8,30.06,ENE,61,0.0,1.0,83,0.00,,---,0.00,VWS V14.01,2013-06-16 02:00:00,
2013-06-15 22:04:00,71.1,66.0,30.06,ENE,61,0.0,0.0,84,0.00,,---,0.00,VWS V14.01,2013-06-16 02:04:00,
2013-06-15 22:09:00,70.7,66.0,30.06,ENE,61,0.0,1.0,85,0.00,,---,0.00,VWS V14.01,2013-06-16 02:09:00,
2013-06-15 22:14:00,70.5,65.8,30.06,ENE,60,0.0,1.0,85,0.00,,---,0.00,VWS V14.01,2013-06-16 02:14:00,
2013-06-15 22:19:00,70.2,65.5,30.07,ENE,61,0.0,1.0,85,0.00,,---,0.00,VWS V14.01,2013-06-16 02:19:00,
2013-06-15 22:24:00,70.0,65.6,30.07,ENE,60,0.0,1.0,86,0.00,,---,0.00,VWS V14.01,2013-06-16 02:24:00,
2013-06-15 22:29:00,69.8,65.8,30.07,ENE,60,0.0,1.0,87,0.00,,---,0.00,VWS V14.01,2013-06-16 02:29:00,
2013-06-15 22:30:00,69.8,65.8,30.07,ENE,60,0.0,1.0,87,0.00,,---,0.00,VWS V14.01,2013-06-16 02:30:00,
2013-06-15 22:34:00,69.6,65.6,30.07,ENE,61,0.0,0.0,87,0.00,,---,0.00,VWS V14.01,2013-06-16 02:34:00,
2013-06-15 22:39:00,69.4,65.7,30.07,ENE,61,0.0,0.0,88,0.00,,---,0.00,VWS V14.01,2013-06-16 02:39:00,
2013-06-15 22:44:00,69.3,65.6,30.07,ENE,61,0.0,0.0,88,0.00,,---,0.00,VWS V14.01,2013-06-16 02:44:00,
2013-06-15 22:49:00,69.1,65.4,30.08,ENE,60,0.0,0.0,88,0.00,,---,0.00,VWS V14.01,2013-06-16 02:49:00,
2013-06-15 22:54:00,69.0,65.3,30.08,ENE,60,0.0,1.0,88,0.00,,---,0.00,VWS V14.01,2013-06-16 02:54:00,
2013-06-15 22:59:00,68.8,65.4,30.08,ENE,60,0.0,1.0,89,0.00,,---,0.00,VWS V14.01,2013-06-16 02:59:00,
2013-06-15 23:00:00,68.7,65.3,30.08,ENE,61,0.0,1.0,89,0.00,,---,0.00,VWS V14.01,2013-06-16 03:00:00,
2013-06-15 23:04:00,68.5,64.8,30.09,ENE,60,0.0,0.0,88,0.00,,---,0.00,VWS V14.01,2013-06-16 03:04:00,
2013-06-15 23:09:00,68.3,64.9,30.09,ENE,61,0.0,0.0,89,0.00,,---,0.00,VWS V14.01,2013-06-16 03:09:00,
2013-06-15 23:14:00,68.1,64.7,30.09,ENE,61,0.0,0.0,89,0.00,,---,0.00,VWS V14.01,2013-06-16 03:14:00,
2013-06-15 23:19:00,68.0,64.6,30.09,ENE,61,0.0,0.0,89,0.00,,---,0.00,VWS V14.01,2013-06-16 03:19:00,
2013-06-15 23:24:00,68.0,65.0,30.09,ENE,61,0.0,0.0,90,0.00,,---,0.00,VWS V14.01,2013-06-16 03:24:00,
2013-06-15 23:29:00,67.9,64.9,30.09,ENE,61,0.0,0.0,90,0.00,,---,0.00,VWS V14.01,2013-06-16 03:29:00,
2013-06-15 23:30:00,67.9,64.9,30.09,ENE,61,0.0,0.0,90,0.00,,---,0.00,VWS V14.01,2013-06-16 03:30:00,
2013-06-15 23:34:00,67.8,64.8,30.09,ENE,61,0.0,0.0,90,0.00,,---,0.00,VWS V14.01,2013-06-16 03:34:00,
2013-06-15 23:39:00,67.6,64.6,30.09,ENE,61,0.0,0.0,90,0.00,,---,0.00,VWS V14.01,2013-06-16 03:39:00,
2013-06-15 23:44:00,67.4,64.4,30.09,ENE,60,0.0,0.0,90,0.00,,---,0.00,VWS V14.01,2013-06-16 03:44:00,
2013-06-15 23:49:00,67.2,64.2,30.09,ENE,61,0.0,0.0,90,0.00,,---,0.00,VWS V14.01,2013-06-16 03:49:00,
2013-06-15 23:54:00,67.1,64.4,30.09,ENE,61,0.0,0.0,91,0.00,,---,0.00,VWS V14.01,2013-06-16 03:54:00,
2013-06-15 23:59:00,66.9,64.2,30.09,ENE,61,0.0,0.0,91,0.00,,---,0.00,VWS V14.01,2013-06-16 03:59:00,